Theta_e
308 310 310 308 306 304 304 302 300 299 298 297 296 295 295 295 294 293 292 291 290 287 288 286 288 289 288 287 287 288 288 289 289 289 290 292 295 296 300 302 304 307 310
307 308 308 307 305 304 302 300 299 297 296 296 295 294 293 293 293 292 292 291 289 286 286 285 288 287 288 287 287 287 288 288 287 288 289 291 292 298 297 297 298 303 306
307 306 305 306 304 303 300 299 297 296 295 294 293 293 292 292 292 291 290 289 288 286 284 284 285 286 286 287 287 287 287 287 286 287 290 289 290 289 293 294 296 297 301
306 305 305 305 304 303 301 298 296 296 294 293 292 291 292 291 290 290 289 288 288 286 285 284 285 286 285 283 284 286 286 286 286 286 287 287 288 289 290 290 291 294 297
306 305 305 305 304 303 300 297 295 295 293 292 291 291 291 291 290 289 288 288 287 286 285 284 284 285 285 284 283 286 286 286 285 285 286 286 287 288 288 289 288 293 296
306 305 305 304 303 302 299 296 295 294 293 291 290 291 290 290 289 288 287 286 286 285 284 285 284 284 284 284 283 285 285 285 285 285 285 286 287 287 287 288 288 288 292
306 305 305 304 302 300 297 295 294 293 291 290 290 290 289 288 288 287 286 286 285 285 284 285 284 283 284 283 283 284 285 285 285 285 285 285 286 286 287 287 288 288 289
306 305 304 303 300 297 295 294 293 291 291 290 290 289 289 288 287 286 286 285 285 285 285 284 283 283 283 282 283 284 284 285 285 285 285 285 285 286 286 287 287 288 289
305 304 303 301 298 296 294 294 292 291 291 290 289 289 288 287 286 286 285 285 285 285 285 284 283 283 283 282 283 284 284 284 284 285 286 285 285 286 286 287 287 288 289
304 303 302 299 297 295 294 294 292 291 290 289 288 287 286 286 285 285 285 285 285 285 285 284 283 283 283 283 284 284 284 284 284 284 285 284 285 285 286 286 288 289 289
304 302 300 298 296 295 294 293 292 291 288 287 287 286 285 285 285 285 285 285 285 285 284 284 284 283 283 283 284 284 285 284 284 284 284 284 285 285 285 286 288 289 289
302 300 299 298 296 294 294 292 291 289 287 287 286 285 285 285 284 284 285 285 285 285 285 284 284 283 283 284 284 284 285 284 284 283 283 283 284 285 285 285 286 288 288
301 300 299 297 295 294 293 291 289 288 287 286 286 285 284 284 284 284 285 285 285 285 285 285 284 283 283 284 284 284 285 284 284 283 283 282 284 285 285 285 285 286 287
301 299 298 296 295 293 291 289 289 288 287 286 285 284 284 283 283 284 285 285 285 285 286 285 284 283 283 283 284 284 284 285 284 284 283 282 282 284 284 285 285 285 286
300 298 297 295 294 292 290 290 288 287 286 286 285 284 283 283 283 284 285 285 285 285 286 285 284 283 283 281 282 283 284 284 283 283 283 283 282 283 284 283 284 284 285
299 297 296 295 293 291 290 289 288 287 286 285 285 284 283 283 283 284 284 284 285 284 285 285 284 283 282 281 283 283 283 283 282 281 281 282 283 283 283 284 284 284 284
299 297 295 294 292 291 290 289 288 287 286 285 284 284 283 282 283 283 283 284 284 284 284 284 283 282 281 280 282 283 283 282 281 280 280 280 280 280 282 283 284 285 285
298 296 295 293 292 291 290 289 288 287 285 283 283 282 282 282 282 283 282 282 283 283 283 283 282 281 280 281 281 282 282 281 280 279 279 279 279 280 280 283 283 284 284
297 295 293 292 291 290 289 289 288 285 283 283 281 282 281 281 281 282 281 281 282 282 282 282 280 279 280 280 279 281 281 280 280 280 279 279 279 279 279 281 282 283 283
295 293 292 292 290 289 289 289 287 283 282 281 281 282 281 281 281 280 279 280 281 280 280 279 279 279 280 280 278 279 280 280 280 280 279 279 279 279 279 279 280 281 282
294 293 292 291 290 289 288 288 283 282 281 282 282 281 282 281 281 279 279 279 279 280 280 279 279 279 280 280 278 279 279 278 279 279 278 278 278 278 278 278 279 280 281
293 293 292 291 289 288 286 284 282 281 282 282 282 281 281 281 281 280 279 279 279 279 279 279 279 279 279 280 279 279 278 278 278 278 277 278 278 277 278 278 279 280 281
293 292 291 290 290 286 282 282 281 282 282 281 281 281 281 281 281 280 279 279 279 279 278 278 278 279 279 281 281 279 278 279 279 278 278 278 279 279 279 279 279 280 281
292 292 291 290 289 283 282 281 282 282 282 281 281 281 281 280 280 280 279 279 279 278 278 277 278 278 278 278 279 279 280 281 280 280 280 280 280 280 281 281 281 280 280
292 291 291 290 287 282 281 281 282 282 282 281 281 281 280 280 280 279 279 279 279 278 278 276 278 277 278 278 278 278 279 280 280 280 281 282 282 282 282 282 281 281 281
291 291 290 289 283 281 281 281 281 281 281 281 281 280 280 280 279 279 279 278 278 278 277 276 277 278 277 277 279 281 281 281 282 282 281 281 281 281 281 282 281 281 281
Wind_Speed
12 9 10 13 17 18 19 20 23 27 26 27 28 23 22 20 25 28 35 37 38 31 28 31 28 30 32 35 35 34 35 32 34 40 43 35 25 15 7 12 17 11 12
13 10 10 13 15 17 17 19 24 27 27 29 27 25 22 22 23 26 29 35 37 31 31 29 26 28 30 34 36 32 32 32 33 34 31 23 26 12 22 13 19 18 17
9 9 11 13 14 17 19 20 24 26 23 26 28 23 22 24 24 25 30 34 35 36 31 27 25 28 29 31 33 31 29 33 32 27 20 17 14 43 10 23 19 26 21
8 7 6 5 9 16 20 21 22 26 24 24 25 24 23 24 22 25 26 31 35 34 37 30 26 28 34 34 31 27 27 29 31 28 25 21 23 26 22 25 39 30 27
7 7 5 4 9 15 19 17 18 20 25 24 21 23 24 23 24 28 27 28 34 37 38 34 29 29 34 37 30 24 26 26 28 26 27 26 24 19 29 37 45 33 24
8 6 6 5 11 16 19 13 15 19 23 23 20 21 21 21 25 28 29 29 29 32 36 36 36 28 32 37 30 22 25 26 26 25 29 24 25 27 28 29 35 37 28
7 6 2 7 13 17 19 17 16 21 23 22 23 22 23 21 24 28 28 29 29 32 33 35 38 30 30 38 28 21 22 27 27 25 25 24 21 22 23 25 30 31 31
8 5 1 7 12 15 19 20 23 20 23 23 20 22 18 22 24 26 26 27 27 30 31 35 37 30 31 39 23 23 21 23 29 25 23 28 23 22 22 22 24 28 16
8 4 4 10 13 15 15 19 22 21 20 18 18 19 21 20 22 23 23 25 26 28 30 35 34 31 37 36 20 23 24 25 31 26 23 31 24 23 25 22 17 16 14
7 2 7 10 13 14 11 17 19 16 15 17 19 21 20 20 22 21 22 24 25 27 32 32 34 35 40 31 26 25 23 25 28 32 22 31 25 26 28 28 21 16 12
5 1 4 8 12 13 14 13 12 16 15 18 19 22 20 21 21 20 20 23 24 30 31 34 38 38 42 29 25 28 26 24 25 34 27 31 25 26 31 33 23 23 16
2 4 1 6 10 12 10 9 15 15 13 17 19 22 20 21 21 20 19 21 26 27 32 36 37 39 41 29 23 26 25 26 24 31 26 29 26 26 27 36 28 21 20
11 5 1 8 9 9 7 10 14 15 15 17 19 21 20 21 21 20 18 21 27 30 32 33 37 39 40 36 19 20 23 24 23 28 31 27 24 24 25 29 34 22 19
8 3 1 5 6 5 7 10 12 14 15 17 19 20 21 21 21 19 19 22 25 29 28 28 35 37 39 39 25 18 20 22 19 28 30 28 22 19 22 24 28 32 26
7 3 1 4 3 6 7 9 11 15 16 17 18 21 20 22 21 20 20 23 25 27 25 28 34 36 38 39 32 18 18 22 20 28 31 30 21 13 12 20 20 24 28
8 5 2 3 2 5 6 8 10 14 16 16 15 18 19 22 23 22 22 24 24 25 25 28 32 34 38 37 34 21 14 19 23 31 32 28 26 22 14 9 11 15 18
7 5 3 2 2 4 6 7 9 12 14 15 14 16 17 20 21 23 23 21 23 23 20 26 28 31 35 36 34 29 15 16 21 27 29 30 30 31 22 13 8 11 18
4 5 2 3 2 3 4 5 8 11 13 14 15 16 17 21 21 21 23 20 18 22 18 22 26 30 34 33 33 33 26 20 22 28 30 30 30 29 25 18 14 13 15
4 2 6 2 2 2 5 8 11 12 13 15 16 15 17 21 21 20 23 21 18 22 20 21 24 29 33 33 34 34 31 27 26 29 30 26 26 26 26 22 19 17 15
3 8 6 5 2 4 6 10 11 11 13 15 15 15 18 19 23 19 23 21 20 22 22 24 26 29 33 33 33 34 32 29 28 29 28 27 25 24 26 24 22 22 21
7 5 8 5 3 2 7 10 10 12 12 14 16 17 17 18 23 21 21 23 23 24 25 27 29 31 36 34 32 33 32 28 27 27 26 26 24 22 25 25 23 21 18
7 7 6 5 5 6 7 8 9 10 11 13 15 18 15 16 21 22 22 23 25 27 29 30 30 33 37 37 35 32 32 25 24 24 23 22 22 22 23 25 25 23 22
3 9 7 7 8 7 6 6 8 9 11 15 12 14 13 13 18 21 24 24 27 29 33 34 34 36 37 35 33 32 31 26 25 23 22 22 23 24 25 27 28 27 28
5 7 10 9 7 6 6 6 8 9 11 12 11 11 13 13 16 20 23 24 28 32 35 37 33 34 36 36 34 31 32 28 27 27 27 27 27 27 26 28 29 29 28
10 10 10 8 6 4 4 4 5 6 5 6 10 10 12 14 16 19 21 23 25 28 32 34 27 32 33 32 29 27 30 29 29 31 32 32 32 31 31 31 30 29 28
11 9 8 6 2 1 3 4 6 6 6 6 11 13 12 13 17 18 18 17 20 22 26 27 24 26 24 26 26 28 29 29 30 34 35 35 34 34 33 33 31 30 28
Wind_Direction
65 29 358 351 350 353 353 350 353 1 3 10 12 12 12 6 1 360 352 354 353 359 1 360 1 3 359 357 356 353 349 349 342 339 332 339 337 285 311 312 305 289 266
62 45 8 356 349 348 352 355 357 360 8 5 10 13 17 21 14 359 352 349 354 352 354 357 359 3 358 355 357 356 350 347 346 346 343 339 345 302 307 319 310 290 281
77 33 8 340 340 353 358 358 359 3 11 358 359 11 22 22 13 8 354 350 354 354 352 358 359 1 358 352 351 354 355 348 350 352 348 344 328 329 319 329 310 314 303
72 41 19 341 351 356 353 358 3 358 4 355 5 20 22 16 4 356 356 349 350 360 2 2 2 2 355 355 351 353 353 353 350 350 347 334 329 323 317 314 321 316 313
83 63 45 9 355 347 347 358 7 353 353 359 13 24 18 14 359 359 359 352 352 358 0 5 3 1 354 355 354 356 356 352 356 351 348 343 341 338 327 320 327 326 326
96 93 83 11 347 338 343 4 6 350 350 11 24 21 10 11 3 360 358 355 356 358 358 359 1 357 350 352 356 355 1 356 356 357 0 348 346 339 331 323 323 323 326
123 157 191 335 333 338 347 6 4 357 14 23 24 16 7 9 358 355 354 357 0 1 0 354 355 355 352 352 359 1 3 0 359 360 358 355 353 345 336 330 322 321 325
140 135 36 332 335 343 356 0 6 11 20 17 12 3 16 6 360 355 357 3 5 2 357 355 352 360 359 357 8 11 4 359 348 0 2 358 1 1 353 343 328 326 325
123 108 338 336 341 356 2 358 11 24 19 12 2 0 0 0 355 354 359 5 6 359 354 353 359 5 4 1 4 11 14 12 2 358 6 356 3 11 10 358 350 329 316
108 49 330 343 346 5 14 357 13 15 360 351 347 351 2 2 358 4 7 6 5 356 355 1 8 11 6 7 12 7 3 3 7 359 9 357 8 16 22 13 12 10 328
155 349 346 350 353 9 22 5 358 352 359 352 349 351 5 3 4 9 11 10 4 358 6 11 11 7 3 6 12 13 10 6 5 3 0 357 7 15 21 23 18 29 25
144 138 334 334 353 17 25 350 339 353 2 351 351 354 5 5 7 10 14 12 6 10 12 11 7 4 2 7 11 15 12 10 3 2 354 358 2 14 21 22 23 31 41
140 137 297 337 20 21 356 344 347 356 358 354 354 358 8 3 5 14 18 16 14 12 9 7 4 2 360 9 13 15 16 14 3 356 2 355 2 9 20 21 25 26 41
167 179 45 358 34 343 352 357 355 353 355 357 360 360 6 4 8 18 23 23 16 14 6 4 1 1 1 6 6 7 13 19 0 352 1 0 2 4 13 19 20 29 38
151 160 279 35 24 348 9 1 352 350 354 4 4 1 3 7 13 23 27 23 19 15 8 2 360 359 3 5 7 3 16 19 3 356 1 6 12 5 11 21 11 19 33
158 142 157 81 355 4 9 358 351 354 357 4 6 358 6 9 17 25 23 20 20 11 14 4 0 358 1 2 10 15 14 21 8 358 3 13 18 20 16 23 36 18 31
167 160 205 90 354 11 7 1 355 349 352 356 360 0 10 14 22 21 13 13 16 4 13 7 1 356 360 3 9 20 20 12 18 360 9 19 22 15 22 38 56 46 52
197 204 229 131 322 37 7 320 326 337 348 0 2 8 17 20 17 15 6 4 6 3 6 1 359 356 3 7 10 15 25 20 27 20 16 19 18 13 17 36 46 49 52
217 231 121 177 73 20 339 312 332 347 0 5 7 20 33 18 8 7 3 5 5 11 13 7 6 5 7 13 11 13 19 23 28 24 13 18 17 12 16 32 43 47 52
93 108 152 88 104 20 310 313 341 1 10 14 23 40 34 16 9 3 14 19 23 24 24 22 18 15 16 18 14 13 13 17 22 23 9 24 18 17 21 29 35 39 40
145 167 118 168 224 271 304 328 354 21 28 39 39 38 33 13 10 14 23 26 29 29 28 25 22 22 23 22 16 17 13 13 21 14 14 22 17 25 27 31 37 40 42
170 128 165 219 276 310 315 350 15 42 41 46 37 29 34 15 6 14 24 27 27 26 26 25 23 25 26 25 21 19 14 19 26 18 19 22 25 30 42 41 45 50 51
140 131 220 246 302 345 10 21 51 50 42 37 44 27 21 13 7 15 22 26 26 26 25 22 20 24 24 23 21 19 17 26 33 32 35 41 44 49 52 51 51 49 48
129 157 226 257 310 353 24 49 70 59 43 23 34 26 17 19 18 19 23 28 26 23 22 16 20 23 21 18 15 19 22 30 39 44 47 50 53 53 51 51 49 50 49
189 207 228 256 309 354 37 56 58 74 56 17 28 26 23 28 28 29 29 31 25 19 16 8 20 22 17 14 16 25 26 33 42 47 48 48 47 48 48 48 45 45 44
207 224 244 261 265 90 86 59 50 61 39 35 31 32 32 36 33 31 36 37 27 23 13 13 18 27 22 20 29 35 39 39 44 48 46 45 44 43 42 41 41 42 43